OpenBCM V1.08-3-g9b42 (Linux)

Packet Radio Mailbox

OK0NBR

[Sao_Jose_dos_Campo]

 Login: GUEST





  
I0OJJ  > KEPS     18.12.25 00:03l 323 Lines 15457 Bytes #229 (0) @ AMSAT
BID : ORB25352.1
Read: GUEST
Subj: 2Line Orbital Elements 25352.AMSAT
Path: OK0NBR<IW0QNL<HB9ON<DK0WUE<PD0LPM<PI8ZTM<CX2SA<EA2RCF<I0OJJ
Sent: 251218/0021z @:I0OJJ.ITA.EU [Rome] obcm1.08-11-2-gbfe9
From: I0OJJ @ I0OJJ.ITA.EU (Gustavo)
To:   KEPS @ AMSAT
X-Info: This message was generated automatically


QST de W1STR

AMSAT Orbital Elements for Amateur Satellites in TLE Format
From Orbital Analysis Office
New England Sci-Tech STEM Education Center
Natick MA December 18, 2025
To all radio amateurs


These element sets describe the orbits of various satellites 
in use by the amateur radio community. For details see:
www.amsat.org/keplerian-elements-formats/

A daily update of element sets is available at:
www.amsat.org/tle/daily-bulletin.txt
or without bulletin text:
www.amsat.org/tle/dailytle.txt


AO-07
1 07530U 74089B   25351.61485071 -.00000028  00000-0  11289-3 0  9996
2 07530 101.9964 357.9338 0012379 117.4240 358.2032 12.53694326337766
UO-11
1 14781U 84021B   25351.62808338  .00001272  00000-0  13702-3 0  9998
2 14781  97.7817 314.5807 0009210  68.6225 291.5975 14.90157767230089
AO-27
1 22825U 93061C   25351.12432327  .00000109  00000-0  58794-4 0  9995
2 22825  98.7142  53.4019 0007314 274.9556  85.0792 14.30878303680964
FO-29
1 24278U 96046B   25351.65284208 -.00000039  00000-0 -29348-5 0  9994
2 24278  98.5460 220.1288 0349361 207.2108 151.0342 13.53262924448612
GO-32
1 25397U 98043D   25351.55371028  .00000074  00000-0  52315-4 0  9998
2 25397  98.9923 334.8770 0001924  49.5490 310.5855 14.24378479425475
ISS
1 25544U 98067A   25351.57133537  .00007597  00000-0  14274-3 0  9999
2 25544  51.6310 118.5527 0003183 262.6214  97.4413 15.49636687543606
NO-44
1 26931U 01043C   25351.41616805  .00000154  00000-0  88587-4 0  9996
2 26931  67.0515 354.3848 0007420 269.6744  90.3508 14.31857439264421
SO-50
1 27607U 02058C   25351.39286381  .00001651  00000-0  21481-3 0  9995
2 27607  64.5541 331.2167 0072440 295.7298  63.6342 14.82410639237500
CO-55
1 27844U 03031E   25351.57814299  .00000324  00000-0  15972-3 0  9999
2 27844  98.6762 357.4188 0009535 359.6280   0.4890 14.24183443165823
CO-57
1 27848U 03031J   25351.47671991  .00000278  00000-0  14155-3 0  9992
2 27848  98.6791 357.1768 0009766  17.6835 342.4682 14.23490862165523
RS-22
1 27939U 03042A   25351.66925676  .00001141  00000-0  18588-3 0  9992
2 27939  98.3359 165.9996 0012214 120.9649 301.5813 14.72984625188821
CO-58
1 28895U 05043F   25351.40415762  .00001462  00000-0  24129-3 0  9993
2 28895  98.2719 138.5607 0015265  64.5076 295.7708 14.71918269 75005
CO-65
1 32785U 08021C   25351.61837854  .00005661  00000-0  38106-3 0  9993
2 32785  97.8081 324.7760 0007832 290.8598  69.1790 15.07103047957821
CO-66
1 32791U 08021J   25351.49560161  .00014023  00000-0  55754-3 0  9990
2 32791  97.7442 336.8052 0001833 182.4298 177.6930 15.25413551959528
RS-30
1 32953U 08025A   25351.61977010  .00000047  00000-0  26975-3 0  9997
2 32953  82.5017 108.3876 0018840 350.3091   9.7623 12.43172291797138
SRMSAT
1 37841U 11058D   25351.60850188  .00000399  00000-0  73051-4 0  9991
2 37841  19.9720  78.4836 0011885   7.0463  21.2980 14.11513105732132
ZACUBE-1
1 39417U 13066B   25351.39749824  .00003280  00000-0  27002-3 0  9999
2 39417  97.8056 307.9496 0042001 132.1904 228.2897 14.99124350653477
Delfi-N3xt
1 39428U 13066N   25351.30220354  .00005894  00000-0  55294-3 0  9991
2 39428  97.8348 267.1754 0080898  90.5775 270.4714 14.91885785647474
GOMX-1
1 39430U 13066Q   25351.53472958  .00001902  00000-0  29627-3 0  9995
2 39430  97.6589 198.3599 0129386 301.1182  57.7384 14.68607992643249
LO-74
1 39440U 13066AA  25351.56788106  .00003439  00000-0  33426-3 0  9993
2 39440  97.8708 295.2332 0058016 269.4523  90.0047 14.92015584649893
AO-73
1 39444U 13066AE  25351.43889655  .00006686  00000-0  45405-3 0  9991
2 39444  97.8069 314.7748 0040943 100.4338 260.1506 15.06034478652278
DTUSAT-2
1 40030U 14033W   25351.63383963  .00007155  00000-0  42258-3 0  9997
2 40030  98.0754 333.3759 0009685 125.4888 234.7245 15.11812152625220
EO-80
1 40032U 14033Y   25351.51185317  .00007328  00000-0  43166-3 0  9990
2 40032  98.0634 332.6338 0009725  76.5133 283.7179 15.11894338625189
LILACSAT-2
1 40908U 15049K   25351.59436692  .00012884  00000-0  27606-3 0  9997
2 40908  97.4909  17.1264 0007726 179.0731 181.0533 15.44870334567651
IO-86
1 40931U 15052B   25151.18580175  .00001241  00000-0  78118-4 0  9996
2 40931   6.0006  24.0987 0012733 338.8432  21.1169 14.78805930523159
Horyu-4
1 41340U 16012D   25351.12410401  .00042528  00000-0  70131-3 0  9997
2 41340  30.9943 279.8696 0006949 276.2554  83.7304 15.50994856542231
Lapan A3
1 41603U 16040E   25351.59490472  .00003381  00000-0  11314-3 0  9999
2 41603  97.1423 348.9747 0009167 314.4675  45.5816 15.31591586527004
CAS-2T
1 41847U 16066G   25351.61148153  .00000926  00000-0  14068-3 0  9997
2 41847  98.4034  64.3044 0342914 320.3691  37.2883 14.44142380478586
TechnoSat
1 42829U 17042E   25351.45394279  .00003121  00000-0  23274-3 0  9996
2 42829  97.4049 151.4570 0018085 358.9124   1.2060 15.03451500459389
AO-91
1 43017U 17073E   25351.61838365  .00008335  00000-0  39503-3 0  9991
2 43017  97.4950 217.7039 0159201 233.5057 125.1418 15.08965472437972
S-Net D
1 43186U 18014G   25351.64358517  .00004592  00000-0  25358-3 0  9997
2 43186  97.5494 252.6920 0006978 293.8437  66.2063 15.14411629431267
S-Net B
1 43187U 18014H   25351.65172080  .00004585  00000-0  25330-3 0  9990
2 43187  97.5500 252.6805 0007507 287.4919  72.5492 15.14387909431260
S-Net A
1 43188U 18014J   25351.64327264  .00004492  00000-0  24803-3 0  9997
2 43188  97.5508 252.8492 0007436 288.3968  71.6455 15.14417955431262
S-Net C
1 43189U 18014K   25351.52255027  .00004800  00000-0  26502-3 0  9993
2 43189  97.5525 252.7758 0008759 278.9164  81.1076 15.14382189429798
Ten-Koh
1 43677U 18084G   25351.44210875  .00002525  00000-0  19840-3 0  9994
2 43677  98.0745 171.2527 0009149  11.7847 348.3589 15.01848344388870
PO-101
1 43678U 18084H   25351.59025741  .00002113  00000-0  17750-3 0  9998
2 43678  98.1021 175.2476 0007608  33.7979 326.3727 14.99460893388992
QO-100
1 43700U 18090A   25351.56032229  .00000169  00000-0  00000-0 0  9993
2 43700   0.0047  73.6268 0000946 209.9824  30.3426  1.00270988 25855
MinXSS-2
1 43758U 18099A   25351.18912934  .00021721  00000-0  64539-3 0  9990
2 43758  97.4801  58.6148 0009219 195.1077 164.9892 15.34747227386100
AO-95
1 43770U 18099N   25351.59248325  .00009658  00000-0  42560-3 0  9990
2 43770  97.4678  47.8396 0008194 266.2803  93.7496 15.21991678385553
SNUSat 2
1 43782U 18099AA  25351.60159015  .00007015  00000-0  34424-3 0  9997
2 43782  97.4351  42.9250 0010386 203.8134 156.2621 15.18360065385448
SnugLite
1 43784U 18099AC  25351.64411340  .00009956  00000-0  43386-3 0  9998
2 43784  97.4166  43.0316 0002697 182.3891 177.7333 15.22389038385653
ITASat 1
1 43786U 18099AE  25351.38396613  .00005912  00000-0  30947-3 0  9993
2 43786  97.4322  41.5987 0011913 265.6362  94.3510 15.16139581385330
EAGLET 1
1 43790U 18099AJ  25351.60490497  .00003849  00000-0  23298-3 0  9996
2 43790  97.4524  41.0176 0009989 250.2543 109.7611 15.11161667384893
ESEO
1 43792U 18099AL  25351.60670788  .00002309  00000-0  17341-3 0  9993
2 43792  97.4223  31.5917 0011450 230.1987 129.8232 15.03498842384513
JO-97
1 43803U 18099AX  25351.14082849  .00013184  00000-0  49994-3 0  9992
2 43803  97.4424  48.9433 0006231 185.0296 175.0881 15.26982803385789
Suomi 100
1 43804U 18099AY  25351.12224163  .00010775  00000-0  45469-3 0  9994
2 43804  97.4485  47.5490 0010583 195.9286 164.1620 15.23416404385651
ISAT
1 43879U 18111D   25351.34429992  .00030782  00000-0  71829-3 0  9991
2 43879  97.5910 271.2275 0003729 223.4627 136.6326 15.42162365382956
UWE-4
1 43880U 18111E   25351.52401118  .00020711  00000-0  61813-3 0  9996
2 43880  97.5863 268.1812 0007202 254.7915 105.2532 15.34635386382819
Sparrow
1 43881U 18111F   25351.51641628  .00036467  00000-0  78616-3 0  9992
2 43881  97.6099 275.1904 0002092 303.6332  56.4716 15.44494858383103
Prox-1
1 44339U 19036A   25351.00770558  .00011198  00000-0  12415-2 0  9995
2 44339  23.9956 246.5023 0006519  90.2176 269.9069 14.85293760346309
Taurus 1
1 44530U 19059C   25351.53861439  .00006864  00000-0  11725-2 0  9997
2 44530  98.6216 140.6559 0009106 160.1781 199.9778 14.69229473331947
TO-108
1 44881U 19093C   25351.61568493  .00000706  00000-0  86616-4 0  9999
2 44881  97.7759  63.1383 0013016 329.5715  30.4744 14.86113140324446
FloripaSat 1
1 44885U 19093G   25351.50931515  .00005786  00000-0  45357-3 0  9999
2 44885  97.8042  79.7255 0010041 321.0998  38.9502 15.01330528325368
RS-44
1 44909U 19096E   25351.39224547  .00000005  00000-0 -21273-4 0  9998
2 44909  82.5213 100.5173 0217207 209.1838 149.6985 12.79746143279099
SALSAT
1 46495U 20068K   25351.51398153  .00007457  00000-0  28925-3 0  9997
2 46495  97.8780 339.0442 0009285 210.0170 150.0536 15.26405168287611
CSS (TIANHE-1)
1 48274U 21035A   25351.45427678  .00020985  00000-0  26148-3 0  9993
2 48274  41.4681 348.0821 0007736  71.5092 288.6587 15.59380496264763
TUBIN
1 48900U 21059X   25349.78845228  .07315651  27141-5  56139-3 0  9990
2 48900  97.6553 178.8839 0007270 265.1302  94.9166 16.40417761249824
CUTE
1 49263U 21088D   25351.20452949  .00027376  00000-0  35436-3 0  9993
2 49263  97.4352  74.2545 0004486 248.6515 111.4262 15.58870806233997
TeikyoSat 4
1 49396U 21102B   25351.64291038  .00002365  00000-0  15463-3 0  9994
2 49396  97.3894  23.0584 0011869 190.8415 169.2560 15.08665286225340
Z-Sat
1 49399U 21102E   25351.66008174  .00003569  00000-0  18601-3 0  9990
2 49399  97.3578  27.4556 0017751 155.4195 204.7888 15.16479504225913
KOSEN 1
1 49402U 21102H   25351.62873528  .00006336  00000-0  26600-3 0  9997
2 49402  97.3469  32.4171 0016048 125.3698 234.9042 15.23691157226341
